Location: North Lima
(40.9484°N, 80.6590°W)
Time: 12:27:28
(UTC+00:00)

Daily predictions for brighter satellites

Satellite Brightness Start Highest point End
(mag) Time Altitude Azimuth Time Altitude Azimuth Time Altitude Azimuth
STARLINK-60 4.4 12:03:34 10° WNW 12:06:26 26° SW 12:09:17 10° S
Iridium 96 4.0 12:05:43 10° SSW 12:08:04 38° W 12:10:19 10° NNW
STARLINK 1038 3.9 12:04:06 10° WSW 12:08:06 47° NNW 12:12:08 10° NE
CORIOLIS 4.2 12:03:16 10° NNE 12:08:39 83° WNW 12:14:01 10° SSW
ATLAS 3B R/B 3.6 12:05:26 10° NW 12:11:10 30° WSW 12:17:02 10° S
SMAP 3.2 12:06:59 10° N 12:11:32 54° WNW 12:16:03 10° SSW
ADEOS Rocket 3.1 12:06:21 10° S 12:11:36 46° W 12:17:05 10° NNW
CZ-3 R/B 3.6 12:04:44 10° W 12:15:20 23° SW 12:20:05 10° S
Cosmos 962 Rocket 4.5 22:52:53 10° S 22:58:59 81° E 23:05:11 10° N
Cosmos 1812 Rocket 4.3 22:57:01 10° NNW 23:01:26 59° W 23:05:49 10° S
Feng Yun 1-1 Rocket 4.5 22:57:04 10° SSE 23:02:49 86° WSW 23:08:45 10° NNW
Cosmos 1455 2.6 23:01:43 10° N 23:05:19 39° ENE 23:08:52 10° SSE
USA 234 3.4 22:59:27 10° ESE 23:05:51 61° NE 23:12:16 10° NW
YAOGAN 1 3.6 23:05:07 10° ESE 23:08:38 25° ENE 23:12:10 10° NNE
Iridium 96 3.6 23:11:24 10° N 23:13:50 55° E 23:16:23 10° SSE
SMAP 3.9 23:09:42 10° S 23:14:15 55° W 23:18:49 10° NNW
Cosmos 1939 Rocket 4.1 23:11:40 10° ESE 23:14:32 20° ENE 23:17:27 10° NNE
CSL-04 Rocket 4.2 23:17:00 10° SE 23:22:01 37° ENE 23:27:06 10° N
ADEOS Rocket 4.2 23:16:58 10° NE 23:22:47 28° E 23:28:57 10° SSE
Cosmos 2237 Rocket 3.5 23:20:11 10° NW 23:25:31 46° WSW 23:30:50 10° S
Cosmos 1727 Rocket 4.2 23:19:53 10° N 23:25:46 44° ENE 23:31:37 10° SSE
Cosmos 2251 Rocket 3.6 23:21:20 10° N 23:26:33 54° ENE 23:31:45 10° SE
SL-8 Rocket 4.0 23:20:35 10° S 23:26:53 87° E 23:33:12 10° N
Cosmos 44 Rocket 3.8 23:29:48 10° S 23:34:14 37° ESE 23:37:33 16° NE
Envisat 3.7 23:32:01 10° S 23:37:00 59° W 23:42:02 10° NNW
Cosmos 1953 Rocket 4.0 23:34:25 10° SSW 23:38:52 67° W 23:43:21 10° N
Shenzhou-11 Module 1.9 23:37:36 10° WNW 23:40:15 53° N 23:41:16 31° ENE
ISS -1.7 23:39:15 10° WNW 23:41:48 19° NNW 23:43:48 13° NNE
COSMO-SKYMED 1 2.8 23:39:51 10° N 23:44:12 73° WNW 23:48:30 10° SSW
Cosmos 1842 Rocket 3.9 23:41:39 10° N 23:45:56 43° ENE 23:50:12 10° SSE
YAOGAN 6 3.7 23:45:50 10° S 23:49:23 47° W 23:52:56 10° NNW
SL-16 R/B 2.3 23:45:32 10° NNW 23:51:13 78° WSW 23:56:51 10° SSE
Meteor 2-10 Rocket 4.0 23:47:31 10° NNW 23:52:40 62° W 23:57:38 10° S
CZ-4 R/B 1.5 23:50:28 10° S 23:54:31 80° WSW 23:58:42 10° NNW
